Location: Courceau
(47.5314°N, 4.6948°E)
Time: 17:32:18
(UTC+00:00)

Daily predictions for brighter satellites

Satellite Brightness Start Highest point End
(mag) Time Altitude Azimuth Time Altitude Azimuth Time Altitude Azimuth
Helios 1A Rocket 4.1 17:02:39 10° ESE 17:05:57 24° ENE 17:09:14 10° N
Cosmos 1953 Rocket 4.2 17:02:37 10° N 17:06:37 33° ENE 17:10:38 10° SE
Cosmos 1340 4.2 17:04:20 10° NNE 17:06:54 17° ENE 17:09:26 10° ESE
ERS-2 2.2 17:04:10 10° NNE 17:07:46 55° ESE 17:11:20 10° S
Cosmos 2058 Rocket 4.4 17:04:39 10° SE 17:07:54 20° E 17:11:11 10° NE
CORIOLIS 4.2 17:03:10 10° SSE 17:08:30 83° ENE 17:13:54 10° NNW
Cosmos 1939 Rocket 3.6 17:05:14 10° SE 17:08:47 32° ENE 17:12:18 10° N
Cosmos 1328 3.8 17:10:47 10° N 17:14:45 86° E 17:18:42 10° S
SAR-Lupe-4 4.1 17:12:25 10° NNE 17:15:47 36° E 17:19:07 10° SSE
SMAP 3.5 17:14:01 10° S 17:18:38 67° WSW 17:23:18 10° NNW
Cosmos 1331 Rocket 4.1 17:16:28 10° S 17:21:27 51° ESE 17:26:27 10° NNE
Cosmos 2219 3.7 17:16:07 10° NNW 17:21:30 39° NE 17:26:52 10° ESE
Cosmos 1818 4.4 17:17:04 10° WSW 17:22:20 49° NW 17:27:39 10° NNE
Timation 2 Rocket 4.2 17:19:41 10° NNW 17:26:13 63° ENE 17:32:56 10° SE
CZ-4 R/B 2.1 17:25:11 10° SE 17:28:35 29° ENE 17:31:58 10° N
COSMO-SKYMED 1 2.9 17:27:48 10° NNE 17:32:00 45° E 17:36:10 10° S
FALCON 9 DEB 4.2 17:30:19 10° SSW 17:33:04 26° SE 17:34:45 17° E
Aureole 3 3.7 17:30:35 10° SSE 17:33:19 25° E 17:35:52 10° NE
SAR-Lupe-1 4.1 17:29:56 10° NNE 17:33:29 54° ESE 17:37:00 10° S
Cosmos 1943 Rocket 4.5 17:31:30 10° W 17:35:18 18° NW 17:39:05 10° N
SeaSat 1 3.6 17:32:11 13° E 17:35:34 25° NE 17:39:35 10° N
Cosmos 1400 Rocket 3.5 17:32:38 10° SSE 17:36:20 33° E 17:40:01 10° NNE
H-2A R/B 3.8 17:33:43 10° N 17:37:28 32° WNW 17:41:09 10° SW
USA 215 3.9 17:33:06 13° ENE 17:38:35 41° N 17:44:38 10° WNW
Okean O Rocket 3.1 17:34:43 10° S 17:38:51 41° W 17:43:00 10° NNW
ATLAS 2AS CENTAUR R/B 4.1 17:33:07 10° NW 17:39:26 26° NNE 17:44:29 13° ENE
CZ-2C R/B 3.6 17:37:51 10° SE 17:43:18 44° ENE 17:48:39 10° N
Cosmos 968 Rocket 4.1 17:38:44 10° N 17:43:32 35° ENE 17:47:57 12° ESE
Cosmos 1825 Rocket 3.9 17:40:21 10° NNW 17:44:48 71° W 17:49:11 10° S
ATLAS 5 CENTAUR R/B 3.8 17:42:26 10° WNW 17:45:40 20° NNW 17:49:16 10° NNE
USA 305 3.7 17:42:26 10° WNW 17:46:29 38° NNE 17:49:00 20° ENE
GENESIS II 4.2 17:43:55 10° SSW 17:47:56 75° SE 17:51:29 13° NE
Cosmos 1110 Rocket 4.0 17:42:48 10° SSW 17:48:04 87° WNW 17:53:20 10° NNE
Cosmos 1689 Rocket 1.9 17:45:47 10° NNE 17:48:41 62° ESE 17:51:31 10° S
YAOGAN 1 2.9 17:44:58 10° SE 17:49:04 43° ENE 17:53:11 10° N
Cosmos 1302 Rocket 4.2 17:45:45 10° S 17:50:47 49° ESE 17:55:52 10° NNE
Meteor 2-10 Rocket 4.3 17:46:56 10° SSE 17:51:27 29° E 17:55:51 10° NNE
USA 306 3.7 17:48:45 10° WNW 17:52:48 39° NNE 17:55:01 22° ENE
ARGOS 3.9 17:50:29 13° ESE 17:54:27 31° ENE 17:59:09 10° N
Cosmos 1486 Rocket 4.3 17:49:32 10° NNW 17:54:40 45° ENE 17:59:22 12° SE
Cosmos 1553 Rocket 4.2 17:48:43 10° SSE 17:54:48 49° E 18:00:49 10° NNE
SKYMED 3 4.5 17:51:42 10° NNE 17:56:05 80° ESE 18:00:25 10° S
Meteor 2-8 Rocket 4.4 17:51:35 10° S 17:57:34 60° E 18:03:36 10° NNE
Cosmos 2227 Rocket 2.3 17:52:54 10° NNW 17:58:28 54° ENE 18:03:35 12° SE
SL-4 R/B 2.4 17:56:35 10° WNW 18:00:01 42° N 18:01:41 26° NE
Cosmos 1726 Rocket 3.6 17:57:24 10° SSW 18:01:45 79° W 18:06:09 10° N
Cosmos 1892 3.0 17:58:13 10° N 18:01:58 44° ENE 18:05:39 10° SSE
Cosmos 1656 4.0 17:56:59 10° S 18:02:11 43° ESE 18:07:21 11° NE
Cosmos 1346 Rocket 3.3 18:01:23 10° N 18:05:05 36° ENE 18:06:07 30° ESE
Cosmos 2263 Rocket 3.8 18:03:40 10° N 18:07:10 16° NE 18:07:57 16° NE
NOSS 2-2 (C) 4.5 18:01:45 10° NW 18:07:15 86° NE 18:14:57 10° SE
BREEZE-M R/B 3.6 18:03:41 10° W 18:07:31 70° N 18:11:38 25° E
Okean-O 2.5 18:04:09 10° SSE 18:08:35 86° ENE 18:13:03 10° NNW
CSL-04 Rocket 3.8 18:03:32 10° SE 18:08:54 52° ENE 18:14:15 10° N
MOS 1 Rocket 3.7 18:04:48 10° NNE 18:09:08 38° E 18:13:39 10° SSE
CZ-2D R/B 3.4 18:05:24 10° S 18:09:13 75° WSW 18:13:02 10° NNW
FALCON 9 DEB 4.3 18:07:24 10° WNW 18:10:31 31° N 18:11:23 27° NNE
Aureole 3 Rocket 3.0 18:07:45 10° S 18:11:31 82° E 18:16:44 10° N
Cosmos 1300 3.6 18:11:00 10° SSW 18:14:43 51° WNW 18:18:28 10° N
SJ-11-01 4.3 18:11:34 10° SSE 18:16:06 55° ENE 18:20:41 10° N
Cosmos 2228 4.4 18:12:34 10° SW 18:16:35 41° WNW 18:20:39 10° N
GEOS 3 Rocket 3.6 18:12:44 19° SE 18:16:38 77° NE 18:22:02 10° NW
Cosmos 1697 Rocket 3.3 18:13:25 10° SSE 18:18:17 32° ESE 18:18:39 31° E
SL-08 R/B 4.4 18:13:12 10° N 18:19:26 83° E 18:25:33 10° S
Cosmos 1745 Rocket 4.0 18:13:14 10° N 18:19:28 62° ENE 18:25:44 10° SSE
SKYMED 2 4.1 18:15:50 10° N 18:20:07 59° WNW 18:24:23 10° SSW
Cosmos 44 3.2 18:16:29 10° SW 18:20:59 78° NW 18:24:23 19° NNE
CZ-4C R/B 4.1 18:16:25 10° NW 18:21:33 24° NNE 18:24:33 18° NE
ERBS 4.5 18:21:34 10° NW 18:23:47 16° N 18:24:22 16° N
Lacrosse 5 3.3 18:20:16 10° WNW 18:24:39 28° N 18:26:52 21° NE
Cosmos 1408 2.8 18:22:48 10° N 18:25:49 48° NE 18:25:49 48° NE
H-2A R/B 2.0 18:23:07 10° SSE 18:28:29 72° ENE 18:33:57 10° N
Cosmos 1825 3.8 18:25:07 10° N 18:26:45 22° NNE 18:26:45 22° NNE
CZ-4B R/B 4.4 18:27:51 10° NNW 18:29:53 16° WNW 18:31:53 10° WSW
Meteor 2-15 4.3 18:26:10 10° S 18:32:17 73° E 18:38:25 10° NNE
Cosmos 1992 Rocket 4.2 18:27:26 10° S 18:32:22 45° ESE 18:32:52 44° E
USA 307 3.1 18:30:55 10° WNW 18:35:08 52° NNE 18:35:30 50° NE
Cosmos 1386 Rocket 4.4 18:30:58 10° N 18:37:25 79° E 18:43:46 10° SSE
Cosmos 2297 Rocket 2.5 18:33:05 10° NNW 18:38:44 68° WSW 18:44:20 10° SSE
FALCON 9 DEB 3.6 18:36:08 10° WSW 18:38:42 53° WSW 18:38:42 53° WSW
USA 308 3.1 18:35:43 10° WNW 18:39:56 55° NNE 18:40:06 54° NNE
Ariane Rocket 3.8 18:41:47 34° NE 18:41:47 34° NE 18:45:30 10° N
Helios 1A Rocket 4.5 18:37:06 10° SSW 18:40:55 36° W 18:44:46 10° NNW
Cosmos 1340 4.0 18:39:08 10° NNW 18:42:42 40° W 18:46:14 10° SSW
Geosat 3.9 18:40:17 19° NNE 18:43:58 89° ESE 18:49:00 10° SSW
BREEZE-M R/B 3.2 18:39:40 10° W 18:45:14 68° NW 18:45:14 68° NW
Cosmos 2058 Rocket 4.2 18:41:16 10° SSW 18:45:34 45° WNW 18:49:55 10° N
FALCON 9 DEB 4.0 18:42:37 10° WSW 18:44:54 43° WSW 18:44:54 43° WSW
CSL-04 Debris 4.3 18:41:22 10° S 18:46:48 78° WSW 18:52:18 10° NNW
Cosmos 1709 Rocket 4.0 18:43:13 10° N 18:49:33 61° ENE 18:51:44 40° SE
Cosmos 2058 3.5 18:56:46 10° NNW 19:00:46 55° W 19:01:47 42° SW
CZ-4 R/B 3.5 19:00:21 10° SSW 19:03:37 25° W 19:06:52 10° NW
Cosmos 2315 Rocket 4.2 18:58:19 10° S 19:05:45 49° NE 19:10:29 10° NNE
Cosmos 2219 4.4 19:00:21 10° NW 19:05:41 40° WSW 19:11:00 10° S
Cosmos 883 Rocket 4.3 19:00:46 10° S 19:06:53 76° E 19:13:02 10° NNE
BREEZE-M TANK 3.2 19:03:01 10° W 19:07:55 47° SW 19:07:55 47° SW
S3M 4.2 19:03:11 10° SSW 19:09:16 69° WNW 19:15:25 10° N
NOSS 3-4 (A) 4.0 19:03:12 10° NW 19:09:51 51° NE 19:10:30 50° ENE
NOSS 3-4 (C) 4.0 19:03:19 10° NW 19:09:58 51° NE 19:10:36 49° ENE
Timation 1 Rocket 4.2 19:06:12 10° NNW 19:12:15 74° ENE 19:12:19 74° ENE
SeaSat 1 2.7 19:11:59 56° SSW 19:12:45 64° WSW 19:17:40 10° NW
Cosmos 2082 3.8 19:10:19 10° NNW 19:16:03 74° WSW 19:16:56 62° S
NOSS 3-3 (A) 3.8 19:13:51 10° SSW 19:19:19 75° SSE 19:19:19 75° SSE
NOSS 3-3 (C) 3.8 19:13:57 10° SSW 19:19:26 75° SSE 19:19:26 75° SSE
USA 215 3.1 19:20:27 67° ENE 19:21:05 71° NNE 19:27:36 10° NW
USA 305 4.3 19:22:31 10° WNW 19:25:08 36° WNW 19:25:08 36° WNW
Atlas Centaur 2 4.4 19:21:41 10° SW 19:27:34 22° S 19:27:34 22° S
Cosmos 2369 4.3 19:22:19 10° SSW 19:26:15 46° SSW 19:26:15 46° SSW
ATLAS 2AS CENTAUR R/B 3.0 19:24:43 10° NW 19:31:55 54° NNE 19:31:55 54° NNE
ATLAS 5 CENTAUR R/B 4.3 19:29:52 10° NNW 19:32:18 13° N 19:32:24 13° N
ARGOS 4.1 19:32:00 27° SSW 19:34:32 45° W 19:39:45 10° NNW
Cosmos 2227 Rocket 4.0 19:37:31 10° NW 19:42:11 27° WSW 19:45:29 16° SSW
Cosmos 2263 Rocket 3.5 19:46:34 10° NNW 19:49:40 33° NNW 19:49:40 33° NNW
Cosmos 1697 Rocket 3.9 19:56:41 10° SW 20:00:29 37° W 20:00:29 37° W
Lacrosse 5 4.0 20:04:01 10° NW 20:06:03 22° NNW 20:06:03 22° NNW
CZ-4C R/B 3.6 20:04:56 10° NW 20:09:44 41° N 20:09:44 41° N
